Tracking 17996 objects as of 27-February-2017
HD Live streaming from Space Station
objects crossing your sky now

BONUM 1

Track BONUM 1 now!
BONUM 1 is classified as:


NORAD ID: 25546
Int'l Code: 1998-068A
Perigee: 36,117.9 km
Apogee: 36,169.1 km
Inclination: 4.0 °
Period: 1,454.0 minutes
Semi major axis: 42514 km
RCS: 0.003 m2 (small)
Launch date: November 22, 1998
Source: Commonwealth of Independent States (former USSR) (CIS)
Launch site: AIR FORCE EASTERN TEST RANGE (AFETR)

Television broadcasting; 8 Ku-band, Siberia or Europe, selected.
Your satellite tracking list
Your tracking list is empty





NASA's NSSDC Master Catalog

Two Line Element Set (TLE):
1 25546U 98068A   17056.64700379  .00000026  00000-0  00000+0 0  9995
2 25546   4.0090  67.8513 0006030 252.7991 107.4542  0.99037087 66874
Source of the keplerian elements: AFSPC